Regional Weather Roundup
Issued by NWS

Home | Current Version | Previous Version | Graphics & Text | Print | Product List | Glossary On
Versions: 1 2 3 4 5 6 7 8 9 10 11 12 13 14 15 16 17 18 19 20 21 22 23 24 25 26 27 28 29 30 31 32 33 34 35 36 37 38 39 40 41 42 43 44 45 46 47 48 49 50
000
ASUS45 KPSR 161510
RWRAZ

ARIZONA REGIONAL HOURLY WEATHER ROUNDUP
NATIONAL WEATHER SERVICE PHOENIX AZ
800 AM MST WED APR 16 2014

NOTE: FAIR INDICATES FEW OR NO CLOUDS BELOW 12,000 FEET WITH NO
SIGNIFICANT WEATHER AND/OR OBSTRUCTIONS TO VISIBILITY.

AZZ001>003-036-161600-
NORTHWEST ARIZONA

CITY           SKY/WX    TMP DP  RH WIND       PRES   REMARKS
BULLHEAD CITY  SUNNY     64  14  14 CALM      29.78R
KINGMAN        SUNNY     67   2   7 SE7       29.86R
$$

AZZ004>008-015-016-018-161600-
NORTH CENTRAL ARIZONA

CITY           SKY/WX    TMP DP  RH WIND       PRES   REMARKS
GRAND CANYON   MOSUNNY   48   5  17 CALM      29.99R
WILLIAMS       SUNNY     52   7  16 CALM      30.06S
PRESCOTT       SUNNY     54   6  14 CALM      29.94R
FLAGSTAFF      SUNNY     53  10  18 VRB5      29.99S
PAYSON         SUNNY     57  12  17 CALM      29.96S
PAGE           PTSUNNY   56  10  16 CALM      29.89R
$$

AZZ009>014-017-161600-
NORTHEAST ARIZONA

CITY           SKY/WX    TMP DP  RH WIND       PRES   REMARKS
WINSLOW        SUNNY     50  11  20 E7        29.92F
SAINT JOHNS    SUNNY     52  10  18 CALM      29.94S
WINDOW ROCK    SUNNY     45   4  18 CALM      29.97S
SHOW LOW       SUNNY     54  10  17 S9        30.00R
$$

AZZ023-161600-
GREATER PHOENIX AREA

CITY           SKY/WX    TMP DP  RH WIND       PRES   REMARKS
PHOENIX        MOSUNNY   68  21  16 E7        29.77R
BUCKEYE          N/A     63  23  22 CALM      29.78S
GLENDALE       SUNNY     66  23  19 N3        29.79R
LUKE AFB       NOT AVBL
DEER VALLEY    SUNNY     66  15  14 CALM      29.79R
SCOTTSDALE     SUNNY     66  25  21 CALM      29.80R
MESA-FALCON    SUNNY     64  16  15 N9        29.79R
MESA-GATEWAY   SUNNY     63  21  20 SE8       29.80S
CHANDLER       SUNNY     63  23  22 CALM      29.79R
$$

AZZ027-028-161600-
SOUTHWEST MARICOPA COUNTY AND PINAL COUNTY

CITY           SKY/WX    TMP DP  RH WIND       PRES   REMARKS
CASA GRANDE    SUNNY     63  19  19 SE5       29.81R
GILA BEND      SUNNY     70   9   9 SE2       29.77S
$$

AZZ503-504-507>509-161600-
SOUTHEAST ARIZONA

CITY           SKY/WX    TMP DP  RH WIND       PRES   REMARKS
TUCSON         SUNNY     65  11  12 SE9       29.87R
DAVIS-MONTHAN  SUNNY     64  14  14 SE8       29.85S
RYAN FIELD       N/A     61  18  18 E5        29.86R
NOGALES        SUNNY     59  12  15 CALM      29.91S
SIERRA VISTA   MOSUNNY   66   5   9 CALM      29.93S
DOUGLAS        SUNNY     59   7  12 SE3       29.92S
SAFFORD        SUNNY     60  10  14 CALM      29.88R
$$

AZZ020-021-025-026-031-161600-
SOUTHWEST ARIZONA

CITY           SKY/WX    TMP DP  RH WIND       PRES   REMARKS
YUMA           SUNNY     67  37  33 S5        29.74R
$$

CAZ031-033-041-043-047-048-061-161600-
SOUTHERN CALIFORNIA

CITY           SKY/WX    TMP DP  RH WIND       PRES   REMARKS
DOWNTOWN L.A.  CLOUDY    58  50  75 CALM      29.87R
L.A. AIRPORT   CLOUDY    59  50  72 SE8       29.87R
SAN DIEGO      CLOUDY    60  51  72 S7        29.88S
BURBANK        CLOUDY    55  50  83 VRB3      29.87R HAZE
ONTARIO        PTSUNNY   54  50  86 W3        29.86R FOG
RIVERSIDE      CLOUDY    52  50  93 W5        29.87R FOG
PALM SPRINGS   SUNNY     69  40  34 SW5       29.75R
EL CENTRO NAS  SUNNY     72  27  18 W6        29.72R
IMPERIAL       SUNNY     67  38  34 W6        29.71R
BLYTHE         SUNNY     65  28  24 CALM      29.74R
NEEDLES        SUNNY     71  10   9 NW3       29.76R
$$

NVZ020-UTZ003-161600-
SOUTHERN NEVADA-UTAH

CITY           SKY/WX    TMP DP  RH WIND       PRES   REMARKS
LAS VEGAS      PTSUNNY   66  20  17 S7        29.78R
SALT LAKE CITY PTSUNNY   47  20  34 NW6       30.01R
$$

NMZ009-TXZ055-161600-
NEW MEXICO-WEST TEXAS

CITY           SKY/WX    TMP DP  RH WIND       PRES   REMARKS
ALBUQUERQUE    SUNNY     53  10  18 S8        29.92S
EL PASO        MOSUNNY   58  15  18 S8        29.89S
$$


........................KEY........................
SKY/WX - SKY CONDITION/WEATHER
TMP    - TEMPERATURE IN FAHRENHEIT
DP     - DEW POINT IN FAHRENHEIT
RH     - RELATIVE HUMIDITY IN PERCENT
WIND   - DIRECTION AND SPEED IN MILES PER HOUR (MPH)
VRB    - VARIABLE WIND DIRECTION
PRES   - MEAN SEA LEVEL PRESSURE IN INCHES OF MERCURY
         F - FALLING PRESSURE   R - RISING PRESSURE
         S - STEADY PRESSURE
VSB    - VISIBILITY IN MILES
HX     - HEAT INDEX IN FAHRENHEIT
WCI    - WIND CHILL INDEX IN FAHRENHEIT
TC     - TEMPERATURE IN CELSIUS WHICH IS ALSO KNOWN AS
         TEMPERATURE IN CENTIGRADE
AFB    - AIR FORCE BASE
         LUKE AFB IS LUKE AIR FORCE BASE
         DAVIS-MONTHAN IS DAVIS-MONTHAN AIR FORCE BASE
NAS    - NAVAL AIR STATION
         EL CENTRO NAS IS EL CENTRO NAVAL AIR STATION
N/A    - NOT AVAILABLE



USA.gov is the U.S. government's official web portal to all federal, state and local government web resources and services.